Location: Clairmont
(55.2667°N, 118.8000°W)
Time: 09:09:34
(UTC+00:00)

N. Korean satellite - Pass Details

Date: 05 November 2020
Orbit: 453 x 503 km, 97.2° (Epoch: 03 December)

Event Time Altitude Azimuth Distance (km) Brightness Sun altitude
Rises 01:05:46 0° 190° (S) 2,507 10.6 -8.3°
Reaches altitude 10° 01:08:01 10° 202° (SSW) 1,627 9.8 -8.6°
Maximum altitude 01:11:06 29° 264° (W) 881 8.8 -9.0°
Drops below altitude 10° 01:14:11 10° 327° (NNW) 1,619 9.5 -9.5°
Sets 01:16:24 0° 339° (NNW) 2,493 10.3 -9.8°
